[Date Prev][Date Next][Thread Prev][Thread Next] - [Date Index][Thread Index][Author Index]
2 Line ISS Keps 11-19
- Subject: [sarex] 2 Line ISS Keps 11-19
- From: "Dave Larsen PhD" <doc@xxxxxxxxxxx>
- Date: Mon, 19 Nov 2001 06:24:18 -0800
ISS
1 25544U 98067A 01323.54139193 .00059704 00000-0 68113-3 0 7371
2 25544 51.6413 27.3669 0010029 353.7973 87.0887 15.61578925171325
----
Via the sarex mailing list at AMSAT.ORG courtesy of AMSAT-NA.
To unsubscribe, send "unsubscribe sarex" to Majordomo@amsat.org
AMSAT Home